[[{"header":{"parameterUnit":"m.s-1","parameterCategory":1,"la1":30.2991,"la2":30.254,"lo1":-89.0895,"lo2":-89.0444,"dy":0.0017,"dx":0.0017,"nx":28,"ny":28,"refTime":"2025-03-14T09:00:00:Z","depth":0,"parameterNumber":2,"parameterNumberName":"U-component_of_WINDS"},"data":[0,0,0,0,0,0,0,0,0,0,0,0,0,0,0,0,0,0,0,0,0,0,0,0,0,0,0,0,0,0,0,0,0,0,0,0,0,0,0,0,0,0,0,0,0,0,0,0,0,0,0,0,0,0,0,0,0,0,-4.4341,-4.4343,0,-4.4537,-4.4539,-4.4541,-4.4617,-4.4616,-4.4615,-4.4615,-4.4815,-4.4821,-4.4827,0,0,0,0,0,0,0,0,0,0,0,0,0,-4.4034,-4.4039,-4.4341,-4.4344,-4.4346,-4.4536,-4.4539,-4.4542,-4.4617,-4.4616,-4.4615,-4.4615,-4.4813,-4.482,-4.4827,0,0,0,0,0,0,0,0,0,0,0,0,0,-4.4192,-4.4041,-4.4341,-4.4406,-4.4414,-4.4536,-4.4539,-4.4542,-4.4617,-4.4616,-4.4615,-4.4614,-4.4811,-4.482,-4.4828,-4.4899,0,0,-4.4855,-4.4859,0,0,0,0,0,0,0,0,-4.4183,-4.4203,-4.4394,-4.4402,-4.4411,-4.4551,-4.4504,-4.4662,-4.4617,-4.454,-4.4615,-4.4614,-4.4728,-4.4744,-4.4782,-4.4908,-4.4917,-4.4856,-4.4861,-4.4865,-4.4867,0,0,0,0,0,0,0,-4.4172,-4.4195,-4.4419,-4.4397,-4.4407,-4.4426,-4.4448,-4.4535,-4.4636,-4.4547,-4.4552,-4.4575,-4.4733,-4.4774,-4.4787,-4.492,-4.4856,-4.4863,-4.4869,-4.4872,-4.5115,-4.5116,0,0,0,0,0,0,-4.415,-4.4186,-4.4412,-4.4424,-4.4293,-4.4433,-4.4457,-4.4507,-4.4636,-4.4654,-4.4575,-4.4577,-4.4759,-4.4777,-4.4795,-4.4886,-4.4865,-4.4873,-4.4878,-4.5114,-4.5115,-4.5116,0,0,0,0,0,0,-4.4143,-4.417,-4.4404,-4.4307,-4.4338,-4.4439,-4.4495,-4.4511,-4.4552,-4.4657,-4.4676,-4.4598,-4.4759,-4.4782,-4.4873,-4.4894,-4.4877,-4.4885,-4.5112,-4.5114,-4.5116,-4.5069,0,0,0,0,0,0,-4.4134,-4.4167,-4.4194,-4.4307,-4.4343,-4.4478,-4.4496,-4.4516,-4.4567,-4.4572,-4.4684,-4.4701,-4.476,-4.4859,-4.4881,-4.4906,-4.4892,-4.5111,-4.5113,-4.5115,-4.5069,-4.5069,-4.5069,0,0,0,0,0,-4.4123,-4.4173,-4.4195,-4.4222,-4.438,-4.448,-4.45,-4.4567,-4.4569,-4.4597,-4.4665,-4.4698,-4.4888,-4.4868,-4.4893,-4.4921,-4.511,-4.5112,-4.5115,-4.5069,-4.5069,-4.5069,0,0,0,0,0,0,-4.4061,-4.4189,-4.4215,-4.4303,-4.438,-4.4492,-4.453,-4.4565,-4.4642,-4.4644,-4.4723,-4.4748,-4.4831,-4.4886,-4.486,-4.4997,-4.5001,-4.5009,-4.4958,-4.4959,-4.4958,-4.4943,-4.4899,0,0,0,0,0,-4.4057,-4.4127,-4.4236,-4.4304,-4.4341,-4.4429,-4.4475,-4.4519,-4.4602,-4.4635,-4.4709,-4.4788,-4.4866,-4.4916,-4.4993,-4.5078,-4.5103,-4.511,-4.5109,-4.5109,-4.5114,-4.5163,-4.5167,-4.5125,-4.5125,-4.5125,0,0,-4.4051,-4.413,-4.4169,-4.4293,-4.4358,-4.4429,-4.4455,-4.4529,-4.4583,-4.4646,-4.4736,-4.4793,-4.4887,-4.4974,-4.5017,-4.5022,-4.5132,-4.5112,-4.5111,-4.5117,-4.5167,-4.517,-4.5174,-4.5127,-4.5127,-4.5126,0,0,-4.4075,-4.4142,-4.4205,-4.427,-4.4367,-4.4426,-4.4441,-4.4548,-4.4589,-4.468,-4.4729,-4.4794,-4.4927,-4.4991,-4.5041,-4.5091,-4.5125,-4.5115,-4.5114,-4.5161,-4.5164,-4.5167,-4.5185,-4.519,-4.512,-4.512,-4.512,0,-4.4055,-4.4163,-4.4234,-4.4305,-4.4358,-4.4419,-4.4484,-4.4544,-4.4661,-4.4697,-4.4701,-4.4869,-4.4936,-4.504,-4.5052,-4.5091,-4.5111,-4.5102,-4.5158,-4.5162,-4.5166,-4.5183,-4.519,-4.5118,-4.5118,-4.5118,-4.5119,0,-4.4133,-4.4208,-4.4248,-4.436,-4.4418,-4.4485,-4.4567,-4.4617,-4.4657,-4.4715,-4.4807,-4.4891,-4.4986,-4.5014,-4.5054,-4.5124,-4.5124,-4.5142,-4.5148,-4.5167,-4.5185,-4.5192,-4.5115,-4.5116,-4.5116,-4.5117,0,0,-4.4123,-4.4273,-4.4287,-4.4338,-4.4451,-4.451,-4.4581,-4.4675,-4.4716,-4.4796,-4.4857,-4.4968,-4.4986,-4.5043,-4.5091,-4.5132,-4.5166,-4.5145,-4.5149,-4.5146,-4.5248,-4.5233,-4.524,-4.5189,-4.5191,-4.5192,-4.524,0,-4.4162,-4.4291,-4.4356,-4.4457,-4.4527,-4.4587,-4.4649,-4.4724,-4.4781,-4.4849,-4.4912,-4.4989,-4.5006,-4.5041,-4.5085,-4.5152,-4.5187,-4.515,-4.5247,-4.525,-4.5221,-4.5249,-4.5234,-4.5275,-4.5248,-4.5249,-4.525,0,-4.4224,-4.4302,-4.441,-4.4515,-4.4547,-4.4601,-4.4692,-4.4756,-4.4844,-4.4882,-4.4946,-4.4993,-4.5071,-4.5072,-4.518,-4.5153,-4.5197,-4.5237,-4.524,-4.5251,-4.525,-4.526,-4.529,-4.5296,-4.5262,-4.5261,-4.526,0,-4.4205,-4.4338,-4.4419,-4.4462,-4.4586,-4.4623,-4.4676,-4.4763,-4.4815,-4.4895,-4.493,-4.5018,-4.5066,-4.5133,-4.5203,-4.5197,-4.5304,-4.5311,-4.5338,-4.5336,-4.5357,-4.5354,-4.5393,-4.5386,-4.5386,-4.5386,-4.5386,0,-4.4241,-4.4304,-4.4412,-4.4462,-4.4535,-4.4611,-4.4681,-4.474,-4.4816,-4.4879,-4.4937,-4.4994,-4.5083,-4.5153,-4.5208,-4.5289,-4.531,-4.5344,-4.5357,-4.5338,-4.5334,-4.5367,-4.5366,-4.5388,-4.5387,-4.5387,-4.5387,0,-4.4231,-4.4306,-4.4399,-4.4509,-4.4538,-4.4587,-4.4682,-4.4733,-4.4793,-4.4871,-4.4894,-4.4988,-4.5073,-4.5149,-4.5261,-4.5299,-4.5381,-4.5399,-4.5351,-4.5358,-4.538,-4.5377,-4.5441,-4.5454,-4.5438,-4.5438,-4.5438,0,-4.4248,-4.4299,-4.4414,-4.446,-4.4512,-4.4586,-4.4639,-4.4716,-4.4769,-4.4873,-4.4912,-4.5001,-4.5075,-4.5208,-4.5286,-4.5373,-4.5393,-4.5409,-4.5406,-4.5385,-4.5392,-4.5388,-4.5393,-4.5408,-4.5408,-4.5408,-4.5407,0,-4.4271,-4.4306,-4.4381,-4.4468,-4.453,-4.4603,-4.4678,-4.4712,-4.4803,-4.4861,-4.4947,-4.5005,-4.512,-4.5208,-4.5303,-4.5359,-4.5398,-4.5408,-4.5419,-4.5399,-4.5369,-4.5385,-4.5348,-4.5406,-4.5406,-4.5406,-4.5406,-4.5406,-4.4276,-4.4323,-4.4412,-4.4493,-4.4557,-4.4626,-4.4679,-4.4746,-4.4819,-4.4918,-4.496,-4.5048,-4.5135,-4.5267,-4.5323,-4.5394,-4.5401,-4.5417,-4.5421,-4.5423,-4.5419,-4.5358,-4.5411,-4.5411,-4.5412,-4.5412,-4.5412,0,-4.4301,-4.4361,-4.4435,-4.4538,-4.4602,-4.4634,-4.4718,-4.4769,-4.4846,-4.4924,-4.4997,-4.5097,-4.5182,-4.5267,-4.5357,-4.5397,-4.5418,-4.5418,-4.5416,-4.5428,-4.5407,-4.5389,-4.54,-4.54,-4.54,-4.54,-4.54,-4.54,-4.4322,-4.4404,-4.4449,-4.4563,-4.4624,-4.471,-4.4755,-4.4819,-4.4882,-4.4991,-4.5062,-4.5117,-4.5198,-4.5295,-4.5374,-4.5397,-4.5428,-4.5423,-4.5451,-4.543,-4.543,-4.543,-4.5413,-4.5429,-4.5429,-4.5466,-4.5466,-4.5467]},{"header":{"parameterUnit":"m.s-1","parameterCategory":1,"la1":30.2991,"la2":30.254,"lo1":-89.0895,"lo2":-89.0444,"dy":0.0017,"dx":0.0017,"nx":28,"ny":28,"refTime":"2025-03-14T09:00:00:Z","depth":0,"parameterNumber":3,"parameterNumberName":"V-component_of_WINDS"},"data":[0,0,0,0,0,0,0,0,0,0,0,0,0,0,0,0,0,0,0,0,0,0,0,0,0,0,0,0,0,0,0,0,0,0,0,0,0,0,0,0,0,0,0,0,0,0,0,0,0,0,0,0,0,0,0,0,0,0,8.1426,8.1427,0,8.1512,8.1513,8.1514,8.1466,8.1464,8.1462,8.1459,8.1544,8.1548,8.1552,0,0,0,0,0,0,0,0,0,0,0,0,0,8.1221,8.1225,8.1426,8.1427,8.1428,8.1512,8.1513,8.1514,8.1467,8.1464,8.1461,8.1458,8.1542,8.1547,8.1553,0,0,0,0,0,0,0,0,0,0,0,0,0,8.1309,8.1226,8.1426,8.1415,8.1415,8.1511,8.1513,8.1514,8.1467,8.1464,8.146,8.1457,8.154,8.1547,8.1553,8.1665,0,0,8.1574,8.1577,0,0,0,0,0,0,0,0,8.1304,8.1316,8.1416,8.1416,8.1416,8.1475,8.1471,8.1565,8.1468,8.1447,8.1459,8.1455,8.1523,8.1531,8.1555,8.1669,8.1672,8.1574,8.1578,8.1581,8.1583,0,0,0,0,0,0,0,8.1298,8.1312,8.146,8.1417,8.1417,8.1405,8.1414,8.1489,8.1504,8.1449,8.1446,8.1457,8.1523,8.1548,8.1556,8.1674,8.1574,8.158,8.1584,8.1587,8.1887,8.189,0,0,0,0,0,0,8.1293,8.1308,8.1457,8.1463,8.135,8.1412,8.1421,8.1459,8.1503,8.1506,8.1459,8.1454,8.1539,8.1549,8.1559,8.1695,8.1581,8.1587,8.1591,8.1883,8.1887,8.1892,0,0,0,0,0,0,8.1288,8.1306,8.1454,8.1384,8.1402,8.1419,8.1462,8.1463,8.1489,8.1511,8.1513,8.1483,8.1536,8.155,8.164,8.1697,8.159,8.1596,8.1878,8.1884,8.189,8.1966,0,0,0,0,0,0,8.1283,8.1305,8.1348,8.1386,8.1406,8.1534,8.1466,8.1467,8.1501,8.1494,8.1534,8.1537,8.1535,8.163,8.1647,8.1704,8.1601,8.1873,8.1881,8.1888,8.1959,8.1974,8.1987,0,0,0,0,0,8.1276,8.1364,8.135,8.1369,8.146,8.1537,8.1549,8.1545,8.1505,8.1549,8.1564,8.1536,8.1688,8.164,8.1658,8.1719,8.1869,8.1879,8.1887,8.1952,8.1971,8.1987,0,0,0,0,0,0,8.1331,8.1369,8.1354,8.1458,8.1495,8.1529,8.1583,8.1565,8.1613,8.1605,8.1597,8.1607,8.1701,8.1718,8.1664,8.183,8.1772,8.1785,8.1816,8.1834,8.1848,8.1842,8.1607,0,0,0,0,0,8.1356,8.1416,8.1445,8.1534,8.1554,8.1566,8.1599,8.1594,8.1631,8.1646,8.1667,8.1704,8.1761,8.1798,8.1851,8.1961,8.197,8.2011,8.2026,8.2037,8.2049,8.2111,8.2131,8.1921,8.1921,8.1921,0,0,8.1406,8.1435,8.1473,8.1546,8.1574,8.1637,8.1579,8.1647,8.1694,8.1656,8.1744,8.1761,8.1801,8.1903,8.1948,8.192,8.2109,8.2049,8.2058,8.2063,8.2123,8.2143,8.216,8.1927,8.1926,8.1925,0,0,8.1532,8.1558,8.1637,8.1667,8.1711,8.1719,8.1738,8.1776,8.1787,8.1875,8.1849,8.1904,8.2,8.2032,8.206,8.2201,8.2178,8.2218,8.2293,8.2354,8.2371,8.2385,8.2438,8.2457,8.2229,8.223,8.223,0,8.1589,8.1683,8.1679,8.1751,8.1785,8.1756,8.1836,8.1865,8.1923,8.1948,8.1915,8.2039,8.2063,8.2173,8.2208,8.2231,8.2254,8.2214,8.2369,8.2383,8.2397,8.2447,8.2467,8.2234,8.2234,8.2233,8.2233,0,8.1753,8.1819,8.1877,8.1938,8.1978,8.2053,8.206,8.2102,8.2093,8.2105,8.2196,8.2225,8.2285,8.2311,8.2302,8.242,8.2402,8.2369,8.2311,8.2422,8.2469,8.2488,8.2241,8.2239,8.2238,8.2237,0,0,8.1915,8.1974,8.1996,8.2024,8.2072,8.2123,8.2197,8.2258,8.2294,8.2336,8.24,8.2484,8.2455,8.2487,8.2482,8.2535,8.2649,8.2497,8.2497,8.2526,8.2784,8.281,8.2832,8.2633,8.2637,8.264,8.2781,0,8.2045,8.2177,8.2177,8.2299,8.2361,8.2336,8.2401,8.2438,8.2451,8.2505,8.2519,8.258,8.2536,8.2556,8.2607,8.2624,8.2701,8.2613,8.2693,8.2696,8.2686,8.2856,8.2883,8.3015,8.2799,8.2802,8.2805,0,8.2215,8.2265,8.2394,8.2436,8.2462,8.2521,8.2578,8.263,8.2672,8.2678,8.2716,8.2703,8.278,8.2719,8.2826,8.2767,8.2799,8.2813,8.2818,8.2826,8.2758,8.2871,8.3057,8.3077,8.2833,8.2831,8.2829,0,8.2323,8.2423,8.2514,8.2539,8.2589,8.2632,8.2654,8.2692,8.273,8.2779,8.2804,8.2861,8.2893,8.2937,8.2941,8.2896,8.3049,8.2988,8.3057,8.3057,8.3091,8.3089,8.3287,8.3109,8.3109,8.3109,8.3108,0,8.247,8.2551,8.2564,8.262,8.271,8.2709,8.2798,8.2817,8.2852,8.2911,8.2891,8.2948,8.2948,8.3006,8.3009,8.3098,8.3112,8.3119,8.3119,8.3122,8.3122,8.3145,8.3136,8.3114,8.3113,8.3112,8.3111,0,8.2607,8.2619,8.2717,8.2758,8.277,8.2835,8.2869,8.2923,8.2935,8.3011,8.3029,8.3047,8.3114,8.3122,8.3199,8.3202,8.331,8.3299,8.3297,8.3296,8.3366,8.336,8.3586,8.3617,8.3417,8.3419,8.3421,0,8.2701,8.2763,8.2811,8.2851,8.2877,8.294,8.2979,8.298,8.3022,8.3076,8.3124,8.3189,8.3242,8.335,8.337,8.343,8.3422,8.3497,8.3431,8.3433,8.3426,8.3424,8.3431,8.351,8.3513,8.3514,8.3516,0,8.2867,8.2871,8.2928,8.299,8.3037,8.3084,8.3129,8.3162,8.3169,8.3217,8.3287,8.3328,8.3409,8.3475,8.3534,8.3557,8.3539,8.3537,8.3556,8.3561,8.3558,8.3563,8.3334,8.3532,8.353,8.3529,8.3528,8.3527,8.2987,8.3042,8.3086,8.3152,8.3186,8.3229,8.3283,8.3302,8.3361,8.3428,8.3425,8.3502,8.3544,8.3623,8.3651,8.3711,8.3686,8.3714,8.3721,8.3729,8.3737,8.3547,8.3721,8.3721,8.3721,8.372,8.372,0,8.3155,8.3183,8.3243,8.3308,8.336,8.3339,8.3388,8.3433,8.3501,8.3543,8.3596,8.3677,8.3742,8.3768,8.3832,8.3875,8.3869,8.3892,8.389,8.3896,8.3754,8.3732,8.3897,8.3897,8.3897,8.3897,8.3896,8.3896,8.3249,8.3342,8.3351,8.3462,8.3488,8.3565,8.3596,8.3635,8.3669,8.3761,8.3816,8.3833,8.3869,8.3935,8.3994,8.4,8.4025,8.4053,8.4056,8.3923,8.3905,8.3889,8.3868,8.4058,8.4058,8.4192,8.4194,8.4195]}]]